This is the latest recevied weather packets stored in our database for station/object PERPET. If no packets are shown the sender has not sent any weather packets the latest 10 day(s).
| Time | Temp. | Humidity | Pressure | Rain* | Wind** | Luminosity | Snow |
|---|---|---|---|---|---|---|---|
| 1777552947 | 8.33° C | - | 1019.9 hPa | 0.51 mm | - | - | - |
| 1777552347 | 8.89° C | - | 1019.7 hPa | 0.25 mm | - | - | - |
| 1777552047 | 8.33° C | - | 1019.6 hPa | 0.25 mm | - | - | - |
| 1777551748 | 8.33° C | - | 1019.5 hPa | 0.25 mm | - | - | - |
| 1777551447 | 8.33° C | - | 1019.6 hPa | 0.25 mm | - | - | - |
| 1777551148 | 8.33° C | - | 1019.8 hPa | 0.25 mm | - | - | - |
| 1777550847 | 8.33° C | - | 1019.8 hPa | 0.25 mm | - | - | - |
| 1777550547 | 8.89° C | - | 1019.7 hPa | 0.25 mm | - | - | - |
| 1777550247 | 8.89° C | - | 1019.7 hPa | 0.25 mm | - | - | - |
| 1777549949 | 8.89° C | - | 1019.6 hPa | 0.25 mm | - | - | - |
| 1777549047 | 8.33° C | - | 1019.7 hPa | 0 mm | - | - | - |
| 1777548747 | 8.33° C | - | 1019.8 hPa | 0 mm | - | - | - |
| 1777548447 | 7.78° C | - | 1019.8 hPa | 0 mm | - | - | - |
| 1777548147 | 8.33° C | - | 1019.8 hPa | 0 mm | - | - | - |
| 1777547847 | 8.33° C | - | 1019.8 hPa | 0 mm | - | - | - |
| 1777547547 | 8.33° C | - | 1019.7 hPa | 0 mm | - | - | - |
| 1777546947 | 8.33° C | - | 1019.6 hPa | 0 mm | - | - | - |
| 1777546347 | 8.33° C | - | 1019.3 hPa | 0 mm | - | - | - |
| 1777546047 | 8.89° C | - | 1019.3 hPa | 0 mm | - | - | - |
| 1777545747 | 8.89° C | - | 1019.3 hPa | 0 mm | - | - | - |
| 1777545447 | 9.44° C | - | 1019.3 hPa | 0 mm | - | - | - |
| 1777545147 | 9.44° C | - | 1019.5 hPa | 0 mm | - | - | - |
| 1777544847 | 9.44° C | - | 1019.2 hPa | 0 mm | - | - | - |
| 1777544247 | 8.89° C | - | 1019.5 hPa | 0.25 mm | - | - | - |
| 1777543947 | 8.89° C | - | 1019.3 hPa | 0.25 mm | - | - | - |
* Rain latest hour (hover to see other rain measurements)
** Current wind speed in m/s (hover to see current wind gust speed)